This demonstration page uses our WeatherBlox Daily Observations layout. Learn more.

Left ArrowRight Arrow

Hourly Observations for September 8, 2020

Temp ( °F °C ) Dew Point ( °F °C ) Humidity (%) Winds ( mph kmh ) Pressure ( in mb ) Visibility ( mi km ) Precip ( " mm )
12:15 am 00:15 Cloudy 54 12 42 5.7 66 66 NE 26 43 29.94 1014 10 16 N/A
12:35 am 00:35 Cloudy with Nearby Thunderstorms 53 11.7 42 5.5 66 66 NE 25 41 29.96 1014 10 16 N/A
12:55 am 00:55 Cloudy 50 10.1 44 6.6 79 79 NNE 21 33 29.96 1015 7 11 0.02 0.51
1:15 am 01:15 Cloudy with Thunderstorms 50 9.8 44 6.6 81 81 NNE 18 30 29.99 1016 10 16 N/A
1:35 am 01:35 Cloudy with Thunderstorms 48 9.1 44 6.5 84 84 NE 22 35 30.01 1016 10 16 0.04 1.02
1:55 am 01:55 Windy with Storms Likely 47 8.5 44 6.5 87 87 ENE 22 35 29.99 1015 7 11 0.10 2.54
2:15 am 02:15 Cloudy with Strong Thunderstorms 46 8 44 6.5 90 90 NE 20 31 29.99 1016 3 5 0.13 3.30
2:35 am 02:35 Windy with Storms Likely 46 7.5 44 6.6 94 94 NE 26 43 29.99 1015 10 16 0.15 3.81
2:55 am 02:55 Cloudy with Thunderstorms 45 7.3 44 6.5 95 95 N 15 24 30.08 1019 10 16 0.15 3.81
3:15 am 03:15 Cloudy with Nearby Thunderstorms 45 7.3 44 6.5 95 95 NNE 20 31 30.06 1018 7 11 0.05 1.27
3:35 am 03:35 Cloudy with Light Rain 45 7.1 43 6.1 93 93 N 18 30 30.09 1019 5 8 0.08 2.03
3:55 am 03:55 Cloudy with Rain 45 7.1 43 6.2 94 94 N 17 28 30.09 1019 7 11 0.11 2.79
4:15 am 04:15 Cloudy with Light Rain 45 7.2 43 6.3 94 94 NNE 20 31 30.10 1019 10 16 0.01 0.25
4:35 am 04:35 Cloudy with Rain 45 7.2 43 6.2 93 93 NNE 23 37 30.10 1019 10 16 0.02 0.51
4:55 am 04:55 Cloudy with Light Rain 45 7.2 43 6.2 93 93 NNE 21 33 30.11 1020 10 16 0.03 0.76
5:15 am 05:15 Cloudy with Rain 45 7.1 43 6.1 93 93 N 20 31 30.13 1020 10 16 N/A
5:35 am 05:35 Cloudy with Light Rain 45 7.1 43 6.1 93 93 NNE 28 44 30.13 1020 10 16 0.02 0.51
5:55 am 05:55 Windy with Storms Likely 45 7.2 43 6.1 93 93 NNE 25 41 30.12 1020 10 16 0.03 0.76
6:15 am 06:15 Cloudy with Rain 45 7.2 43 6.1 93 93 NNE 25 41 30.12 1020 10 16 0.02 0.51
6:35 am 06:35 Cloudy with Light Rain 45 7.1 43 6 93 93 NNE 23 37 30.13 1020 10 16 0.02 0.51
6:55 am 06:55 Cloudy 45 7 42 5.8 92 92 NNE 25 41 30.16 1021 10 16 0.02 0.51
7:15 am 07:15 Cloudy with Nearby Thunderstorms 45 7 42 5.7 92 92 NNE 22 35 30.16 1021 10 16 N/A
7:35 am 07:35 Cloudy 45 7 42 5.7 92 92 NE 22 35 30.16 1021 10 16 N/A
7:55 am 07:55 Cloudy 45 7 42 5.6 91 91 NNE 25 41 30.18 1022 10 16 N/A
8:15 am 08:15 Cloudy with Drizzle 44 6.5 42 5.4 93 93 NNE 20 31 30.18 1022 10 16 N/A
8:35 am 08:35 Cloudy with Light Rain 44 6.5 42 5.5 93 93 NNE 22 35 30.19 1022 10 16 N/A
8:55 am 08:55 Cloudy with Light Rain 42 5.8 40 4.7 93 93 N 25 41 30.21 1023 10 16 0.01 0.25
9:15 am 09:15 Cloudy 41 5 39 4 93 93 NNE 22 35 30.22 1023 10 16 N/A
9:35 am 09:35 Cloudy 41 4.8 39 3.8 93 93 NNE 28 44 30.23 1024 7 11 N/A
9:55 am 09:55 Cloudy 41 4.8 39 3.7 93 93 NNE 22 35 30.24 1024 10 16 N/A
10:15 am 10:15 Cloudy 41 5 38 3.6 91 91 NNE 26 43 30.26 1025 10 16 N/A
10:35 am 10:35 Cloudy 41 5.1 38 3.6 90 90 NNE 28 44 30.26 1025 10 16 N/A
10:55 am 10:55 Cloudy 41 5.2 38 3.6 90 90 NNE 24 39 30.27 1025 10 16 N/A
11:15 am 11:15 Cloudy 41 5.1 38 3.5 90 90 NNE 26 43 30.27 1025 10 16 N/A
11:35 am 11:35 Cloudy 42 5.3 39 3.9 91 91 NNE 25 41 30.28 1025 7 11 N/A
11:55 am 11:55 Cloudy 42 5.5 39 4 90 90 NNE 21 33 30.29 1026 10 16 N/A
12:15 pm 12:15 Cloudy with Mist and Fog 42 5.5 39 4 90 90 NNE 28 44 30.29 1026 5 8 N/A
12:35 pm 12:35 Cloudy with Mist and Fog 42 5.5 40 4.2 91 91 NNE 23 37 30.30 1026 4 6 N/A
12:55 pm 12:55 Cloudy with Light Rain 42 5.5 40 4.2 91 91 NNE 26 43 30.30 1026 3 5 N/A
1:15 pm 13:15 Cloudy with Light Rain 42 5.5 40 4.5 93 93 N 20 31 30.30 1026 3 5 N/A
1:35 pm 13:35 Cloudy with Mist and Fog 42 5.5 40 4.6 94 94 NNE 20 31 30.31 1027 4 6 N/A
1:55 pm 13:55 Cloudy with Nearby Thunderstorms 42 5.5 40 4.6 94 94 NNE 24 39 30.30 1026 4 6 N/A
2:15 pm 14:15 Cloudy with Nearby Thunderstorms 42 5.5 40 4.5 93 93 NNE 28 44 30.29 1026 4 6 N/A
2:35 pm 14:35 Cloudy with Nearby Thunderstorms 42 5.6 40 4.5 93 93 N 17 28 30.29 1026 5 8 N/A
2:55 pm 14:55 Cloudy with Nearby Thunderstorms 42 5.5 40 4.6 94 94 N 20 31 30.31 1027 5 8 N/A
3:15 pm 15:15 Cloudy 42 5.5 40 4.5 93 93 NNE 21 33 30.31 1027 5 8 N/A
3:35 pm 15:35 Cloudy 42 5.6 40 4.5 93 93 N 15 24 30.31 1027 4 6 N/A
3:55 pm 15:55 Cloudy with Light Rain 42 5.6 40 4.6 93 93 N 18 30 30.30 1026 5 8 0.01 0.25
4:15 pm 16:15 Cloudy 42 5.6 40 4.6 93 93 N 21 33 30.30 1026 7 11 N/A
4:35 pm 16:35 Cloudy with Thunderstorms 42 5.5 40 4.5 93 93 N 16 26 30.31 1027 10 16 N/A
4:55 pm 16:55 Cloudy with Thunderstorms 42 5.5 40 4.2 91 91 N 17 28 30.31 1027 10 16 N/A
5:15 pm 17:15 Cloudy with Drizzle 41 5.2 39 4 92 92 N 18 30 30.33 1027 10 16 N/A
5:35 pm 17:35 Cloudy with Light Rain 41 5 39 4 93 93 N 20 31 30.32 1027 7 11 0.01 0.25
5:55 pm 17:55 Cloudy with Light Rain 40 4.7 38 3.6 93 93 NNE 24 39 30.32 1027 7 11 0.02 0.51
6:15 pm 18:15 Cloudy with Light Rain 40 4.3 37 2.8 90 90 NNE 21 33 30.33 1027 10 16 N/A
6:35 pm 18:35 Cloudy 40 4.2 37 2.5 89 89 NNE 21 33 30.35 1028 10 16 N/A
6:55 pm 18:55 Cloudy 40 4.5 37 2.7 88 88 NNE 17 28 30.35 1028 10 16 N/A
7:15 pm 19:15 Cloudy 40 4.5 37 2.6 88 88 NNE 20 31 30.35 1028 10 16 N/A
7:35 pm 19:35 Cloudy 40 4.6 37 2.7 88 88 NNE 18 30 30.35 1028 10 16 N/A
7:55 pm 19:55 Cloudy with Rain 40 4.5 37 3 90 90 NNE 17 28 30.35 1028 10 16 N/A
8:15 pm 20:15 Cloudy with Drizzle 40 4.6 38 3.4 92 92 NNE 17 28 30.35 1028 10 16 N/A
8:35 pm 20:35 Cloudy 40 4.3 36 2.4 88 88 NNE 21 33 30.35 1028 10 16 N/A
8:55 pm 20:55 Cloudy 40 4.3 37 2.5 88 88 N 16 26 30.37 1028 10 16 N/A
9:15 pm 21:15 Cloudy with Light Rain 39 4.1 36 2 86 86 NNE 15 24 30.36 1028 10 16 N/A
9:35 pm 21:35 Cloudy 39 4.1 37 2.5 89 89 N 10 17 30.39 1029 10 16 N/A
9:55 pm 21:55 Cloudy with Thunderstorms 40 4.2 36 2.1 86 86 N 17 28 30.39 1029 10 16 N/A
10:15 pm 22:15 Cloudy with Light Rain 39 4.1 36 2 86 86 NNE 15 24 30.38 1029 10 16 N/A
10:35 pm 22:35 Cloudy 39 4.1 36 2.1 87 87 NNE 13 20 30.37 1028 10 16 N/A
10:55 pm 22:55 Cloudy with Drizzle 39 4 36 2.2 88 88 NNE 14 22 30.38 1029 10 16 N/A
11:15 pm 23:15 Cloudy with Thunderstorms 39 4 36 2.3 89 89 N 10 17 30.38 1029 10 16 0.01 0.25
11:35 pm 23:35 Cloudy with Rain 39 4 37 2.5 90 90 N 9 15 30.39 1029 10 16 0.01 0.25
11:55 pm 23:55 Cloudy 39 4 37 2.5 90 90 NNE 10 17 30.38 1029 10 16 0.02 0.51

Powered by AerisWeather